Wind_Speed
31 25 23 20 20 20 20 20 19 20 18 18 17 17 18 17 15 18 18 17 17 17 18 19 20 18 20 22 21 21 21 23 21 23 21 17 15 15 18 19 20 19 19
27 27 25 21 20 20 20 18 18 20 20 20 20 20 17 17 17 15 18 19 21 21 19 19 23 23 24 21 23 24 26 24 23 23 23 23 20 17 16 19 24 25 22
26 27 27 22 21 20 17 17 18 21 23 25 26 23 23 22 20 8 11 20 26 24 20 21 22 22 26 25 25 28 27 29 27 25 25 22 18 20 24 24 25 28 27
24 29 29 27 22 18 16 16 17 19 23 24 24 26 22 7 6 12 22 24 30 26 26 26 24 21 24 21 23 25 24 26 27 23 18 20 28 36 31 31 31 34 32
26 28 29 29 23 19 18 19 20 22 27 26 22 20 17 18 13 16 13 17 18 32 28 33 26 24 23 24 24 23 22 25 23 25 28 35 45 39 29 23 24 28 29
13 19 25 27 20 17 19 17 19 19 21 19 18 14 9 7 5 7 11 15 22 29 31 24 25 26 25 23 23 21 20 22 22 26 30 31 31 30 32 30 27 24 26
4 6 6 9 11 12 14 16 16 10 7 9 9 10 9 7 3 3 5 6 8 14 15 17 20 20 20 19 17 15 16 18 20 21 25 28 28 26 24 33 34 37 33
5 4 4 6 7 4 3 3 3 4 6 8 10 11 10 9 8 6 6 6 7 9 12 14 15 16 16 16 14 13 13 15 18 21 23 23 20 17 18 17 19 25 28
9 8 7 6 6 7 6 6 7 8 8 10 11 12 12 10 9 7 7 8 9 10 14 16 17 17 14 12 12 12 13 16 17 18 18 18 18 17 16 16 19 23 27
7 9 10 9 8 9 10 10 10 8 9 11 12 13 13 14 13 12 11 9 9 11 12 11 10 9 9 8 10 12 13 14 12 9 10 12 12 13 15 19 23 28 32
10 10 10 9 12 13 11 10 10 10 10 11 13 12 13 14 15 14 14 15 10 8 7 5 6 8 8 8 10 10 9 9 8 7 6 6 7 9 9 15 18 27 35
11 11 10 13 14 13 12 11 11 11 9 10 12 11 11 13 14 14 15 15 18 18 12 8 9 12 12 11 11 10 9 8 6 4 5 5 5 6 9 12 12 11 15
9 9 11 11 11 10 9 8 8 9 8 8 10 8 9 12 13 14 14 14 13 12 13 13 13 13 12 12 12 12 12 9 6 6 7 10 8 6 3 1 7 7 9
9 10 10 10 8 7 5 5 6 7 7 6 9 7 5 8 12 13 14 12 13 12 10 10 10 10 10 12 12 12 14 13 9 7 7 8 10 11 9 5 3 3 9
8 10 8 6 4 2 1 2 5 7 7 7 6 6 3 4 10 13 10 13 16 16 14 10 8 7 9 10 13 12 12 13 9 5 5 6 7 8 8 9 8 10 14
8 10 6 6 4 4 4 3 5 7 8 5 5 3 2 2 5 10 11 11 14 16 16 17 14 11 8 8 10 11 11 12 11 9 6 4 5 7 7 9 10 10 16
8 9 4 4 3 3 2 2 2 4 8 3 5 3 3 1 3 6 8 10 12 14 15 17 17 14 10 8 8 8 6 7 5 6 4 5 6 7 8 9 11 12 7
7 11 8 5 7 4 1 3 4 5 7 3 4 7 1 3 5 4 5 6 8 10 12 15 17 15 12 11 10 8 4 4 5 2 3 3 5 5 4 9 8 6 4
5 7 10 8 8 4 2 6 5 3 6 2 0 1 2 4 7 6 7 7 8 7 8 10 13 14 13 12 12 10 6 4 3 2 1 0 3 3 2 8 8 5 5
8 6 9 10 8 6 3 3 2 1 4 3 3 3 3 4 8 8 9 10 11 10 8 6 9 11 11 13 12 12 10 4 2 1 2 1 5 5 4 7 7 7 5
9 7 7 7 10 12 8 6 6 5 4 4 5 5 5 4 6 8 5 8 11 7 7 5 7 7 9 13 11 7 7 7 4 0 1 2 4 5 6 8 8 10 7
14 11 8 6 5 7 10 6 6 8 9 7 7 9 8 6 5 6 6 9 8 8 6 5 5 6 7 12 13 5 4 5 5 1 1 2 3 5 6 7 8 8 10
14 14 11 8 7 10 13 11 9 7 8 9 9 8 10 5 5 5 5 8 7 10 6 4 7 6 7 12 15 5 4 5 5 5 4 4 4 4 6 6 6 10 13
12 16 16 10 7 3 5 8 13 9 7 7 7 5 4 3 5 4 4 4 2 8 9 7 6 5 6 10 12 7 3 4 5 5 3 6 5 6 6 6 10 10 9
10 12 14 14 11 10 10 8 8 7 5 3 2 2 2 2 4 4 6 5 5 5 9 4 5 3 4 7 8 7 4 6 3 4 3 6 7 6 8 9 12 9 10
8 11 12 12 11 10 10 11 9 10 7 6 6 5 5 7 6 7 7 7 7 5 8 4 3 3 7 6 7 7 4 3 2 4 3 1 4 6 9 12 12 10 12
Wind_Direction
245 245 248 247 252 255 258 264 268 270 269 263 262 265 259 267 271 272 273 274 281 286 276 267 268 271 273 270 272 273 276 271 275 282 287 290 287 291 280 274 272 271 265
247 248 244 250 252 258 259 265 268 270 270 269 269 270 272 267 268 275 263 264 262 268 271 275 281 282 279 279 275 273 271 270 271 277 280 273 274 274 272 273 277 271 274
254 253 241 244 250 255 265 276 275 275 277 278 278 282 277 273 266 291 318 318 277 265 270 274 277 282 290 285 277 275 272 277 274 276 276 278 283 291 286 284 273 266 268
255 249 240 241 248 255 265 276 285 287 284 283 283 278 279 303 285 302 301 316 254 252 261 272 285 292 302 292 278 276 273 270 275 269 270 277 278 289 275 278 276 263 258
256 246 247 248 253 258 265 274 281 283 285 287 287 287 285 289 264 292 271 255 234 219 256 273 275 294 291 286 279 280 279 265 264 266 271 281 281 277 279 266 262 271 265
244 239 245 249 252 260 270 282 280 284 295 323 335 352 35 22 330 288 263 256 234 237 280 280 275 289 293 286 280 274 269 269 271 272 277 275 272 276 271 262 261 260 249
181 184 216 229 240 252 270 276 288 312 337 353 27 39 32 26 5 328 290 285 277 274 282 287 291 293 297 299 294 281 271 273 276 279 278 277 281 277 273 264 268 257 258
205 220 237 246 257 254 290 304 338 23 24 28 32 37 39 30 19 13 350 328 309 294 288 291 293 299 297 293 299 301 293 290 296 296 290 285 275 269 264 263 262 266 253
96 94 93 90 95 99 92 78 69 71 62 41 34 41 33 29 19 359 331 308 289 275 273 278 288 302 302 296 296 306 307 304 299 298 291 282 270 262 259 240 250 246 237
96 99 98 95 95 97 92 85 86 62 48 45 34 23 23 12 8 5 353 333 314 300 290 295 305 314 301 308 311 315 315 314 312 303 299 294 276 260 251 245 256 250 235
102 104 99 90 103 99 92 84 71 65 60 39 24 19 13 13 14 22 24 24 15 25 32 14 347 339 329 319 321 328 334 335 332 332 314 286 288 272 278 271 258 257 238
109 110 107 112 104 91 85 82 73 62 48 31 17 15 16 20 27 33 34 33 38 45 57 51 43 45 45 40 33 23 6 344 329 344 347 348 335 312 294 296 297 301 254
111 114 122 123 112 102 90 75 57 45 16 21 15 17 27 34 45 36 27 28 33 40 51 60 60 53 49 42 34 25 12 10 27 29 29 18 30 33 29 22 61 63 83
130 130 126 133 124 104 83 63 29 10 1 5 11 15 38 56 48 33 31 38 30 28 30 34 39 35 31 29 26 25 25 21 41 52 38 69 82 71 73 64 72 100 102
155 162 148 148 162 158 48 348 350 357 334 348 359 4 43 92 42 31 36 40 40 41 37 26 18 25 17 15 11 15 21 23 33 77 96 99 91 80 97 76 91 106 106
185 174 193 218 224 228 252 314 354 355 348 340 339 352 150 121 23 24 34 35 31 28 26 22 15 10 11 8 356 0 14 29 35 58 83 99 110 83 99 110 104 110 117
211 203 210 195 208 272 314 12 29 15 4 46 26 2 205 226 6 9 23 34 32 27 27 24 22 20 16 12 353 357 25 19 20 45 68 99 118 107 107 120 124 119 117
209 216 226 238 245 268 181 314 351 318 341 6 56 55 119 278 300 307 345 354 8 17 24 25 21 16 11 7 4 359 355 352 3 12 43 117 134 109 110 151 149 140 130
246 242 232 235 235 233 234 304 283 304 323 255 338 30 9 352 338 282 296 317 330 338 357 8 13 15 13 7 359 2 344 318 333 12 349 207 208 181 151 164 161 150 138
257 251 224 228 233 228 242 321 278 247 25 266 308 339 302 313 327 316 292 296 306 322 311 342 2 13 20 13 6 360 4 5 1 294 323 292 195 191 173 172 173 170 161
213 221 235 234 235 234 232 262 245 265 281 323 313 286 275 287 321 336 351 329 332 326 303 315 347 352 2 7 2 353 355 357 16 321 245 236 181 181 184 181 188 188 188
215 231 227 246 256 234 241 261 265 280 267 276 305 314 293 275 285 332 344 351 358 344 323 310 330 340 351 359 355 335 353 354 357 2 338 224 189 180 185 191 204 201 184
217 227 233 243 260 262 245 248 286 259 264 271 279 295 304 257 249 282 328 5 34 24 13 328 345 338 352 1 0 355 350 347 329 338 236 244 214 201 183 199 209 186 180
233 230 231 237 236 222 211 241 275 258 268 261 297 313 344 267 282 280 301 354 8 10 7 350 348 338 340 338 357 23 16 344 321 321 283 221 234 213 205 185 171 169 191
261 239 233 229 234 248 234 243 260 265 269 248 237 307 307 305 315 298 280 290 332 333 0 349 17 357 332 329 345 351 311 320 309 307 312 229 223 219 198 190 174 170 163
272 235 234 231 244 251 231 243 263 257 267 272 246 251 272 264 280 274 275 281 298 294 346 337 321 326 331 324 341 350 337 307 298 316 320 276 216 207 193 180 181 178 170
Height
1540 1543 1544 1544 1545 1547 1547 1547 1547 1548 1549 1550 1550 1550 1550 1551 1553 1553 1553 1554 1553 1552 1551 1551 1549 1549 1549 1548 1549 1548 1547 1546 1544 1543 1543 1542 1541 1542 1544 1544 1545 1545 1545
1536 1541 1541 1542 1543 1543 1544 1545 1546 1545 1546 1547 1545 1546 1548 1548 1549 1549 1549 1548 1546 1546 1546 1546 1546 1546 1544 1543 1543 1541 1542 1541 1540 1538 1538 1537 1536 1535 1536 1538 1540 1541 1541
1532 1536 1538 1539 1541 1542 1543 1543 1543 1544 1544 1542 1542 1544 1543 1544 1545 1545 1546 1544 1544 1540 1538 1539 1540 1539 1538 1537 1537 1536 1534 1537 1536 1534 1532 1533 1533 1532 1531 1530 1531 1533 1536
1527 1531 1533 1536 1539 1540 1540 1540 1542 1540 1538 1538 1538 1538 1538 1537 1535 1537 1539 1530 1527 1531 1533 1534 1534 1534 1533 1530 1530 1528 1527 1529 1529 1527 1525 1526 1525 1522 1522 1520 1519 1522 1525
1522 1526 1529 1533 1537 1537 1537 1538 1538 1536 1532 1532 1530 1526 1528 1525 1528 1525 1529 1526 1521 1524 1528 1529 1529 1527 1527 1525 1523 1522 1522 1520 1518 1519 1517 1513 1513 1512 1510 1511 1512 1515 1516
1520 1521 1526 1530 1534 1534 1537 1535 1534 1532 1530 1528 1525 1525 1526 1523 1523 1522 1523 1526 1522 1522 1523 1523 1523 1521 1520 1520 1517 1515 1515 1514 1513 1512 1510 1505 1503 1506 1507 1506 1507 1510 1510
1522 1524 1524 1528 1532 1533 1532 1531 1531 1532 1531 1530 1527 1527 1525 1525 1525 1523 1524 1522 1519 1520 1519 1517 1517 1518 1516 1513 1510 1510 1510 1509 1508 1507 1502 1500 1498 1498 1500 1500 1502 1502 1504
1523 1524 1526 1526 1527 1531 1531 1532 1532 1531 1530 1529 1528 1527 1526 1524 1523 1523 1520 1518 1518 1517 1517 1515 1514 1513 1510 1508 1506 1506 1506 1504 1503 1499 1495 1494 1493 1494 1494 1495 1496 1497 1499
1525 1525 1526 1527 1528 1530 1531 1531 1531 1530 1530 1530 1528 1527 1526 1525 1524 1522 1520 1518 1517 1515 1514 1512 1511 1508 1505 1504 1501 1501 1500 1499 1497 1494 1491 1489 1489 1489 1490 1491 1492 1494 1494
1526 1527 1528 1529 1530 1531 1532 1533 1532 1532 1531 1531 1529 1527 1526 1525 1522 1519 1517 1515 1513 1511 1509 1508 1505 1503 1502 1499 1498 1498 1497 1496 1493 1491 1489 1488 1487 1487 1487 1488 1488 1488 1489
1528 1529 1530 1531 1532 1534 1535 1535 1534 1534 1534 1531 1530 1528 1526 1524 1522 1519 1518 1514 1512 1510 1508 1506 1504 1503 1499 1498 1498 1496 1495 1493 1491 1490 1489 1488 1487 1486 1484 1484 1482 1483 1478
1530 1531 1532 1534 1535 1536 1536 1536 1536 1535 1534 1533 1531 1529 1527 1525 1523 1520 1518 1516 1513 1511 1507 1506 1505 1502 1501 1500 1499 1497 1495 1493 1492 1490 1489 1487 1486 1485 1484 1483 1481 1481 1475
1532 1533 1535 1536 1537 1538 1538 1538 1537 1537 1535 1534 1532 1530 1529 1527 1525 1522 1520 1518 1515 1513 1510 1508 1506 1505 1504 1503 1501 1499 1496 1493 1491 1490 1489 1486 1485 1484 1484 1484 1483 1484 1486
1533 1535 1536 1537 1538 1539 1539 1538 1537 1536 1535 1534 1532 1531 1531 1530 1528 1525 1523 1520 1518 1516 1514 1512 1510 1508 1507 1505 1502 1499 1497 1494 1492 1491 1490 1489 1489 1489 1488 1488 1488 1489 1490
1534 1536 1537 1538 1539 1540 1539 1538 1538 1537 1535 1534 1533 1533 1532 1531 1530 1528 1525 1523 1520 1518 1517 1515 1513 1510 1508 1507 1504 1502 1499 1497 1494 1494 1493 1493 1493 1493 1493 1493 1493 1494 1495
1533 1535 1537 1538 1539 1539 1539 1538 1538 1537 1535 1534 1533 1533 1532 1532 1531 1529 1527 1525 1523 1520 1518 1515 1512 1510 1509 1508 1506 1503 1501 1500 1498 1497 1496 1496 1496 1496 1497 1498 1499 1500 1500
1533 1535 1537 1538 1538 1538 1538 1538 1537 1537 1536 1535 1534 1533 1532 1532 1532 1531 1529 1527 1525 1522 1520 1517 1514 1512 1510 1509 1507 1505 1503 1502 1501 1500 1499 1499 1500 1500 1500 1502 1503 1504 1506
1532 1534 1536 1537 1537 1537 1537 1537 1537 1536 1536 1535 1534 1533 1533 1532 1531 1530 1529 1527 1526 1524 1522 1520 1517 1514 1511 1509 1507 1505 1504 1503 1501 1501 1501 1502 1502 1503 1504 1505 1506 1508 1508
1532 1533 1534 1535 1535 1536 1536 1536 1536 1536 1535 1534 1534 1533 1532 1531 1530 1529 1528 1527 1526 1525 1524 1521 1518 1515 1512 1510 1508 1505 1503 1502 1501 1501 1502 1503 1504 1504 1505 1506 1508 1510 1511
1530 1531 1532 1533 1534 1535 1536 1535 1535 1535 1534 1533 1533 1532 1531 1531 1530 1527 1526 1525 1525 1524 1522 1520 1518 1516 1514 1511 1509 1506 1503 1502 1501 1502 1502 1502 1502 1504 1506 1507 1509 1510 1512
1528 1530 1531 1531 1532 1533 1534 1533 1533 1533 1533 1532 1532 1531 1530 1529 1528 1526 1525 1524 1523 1521 1520 1520 1518 1516 1514 1512 1510 1507 1505 1504 1502 1502 1502 1502 1503 1504 1505 1507 1509 1511 1512
1527 1529 1530 1530 1531 1531 1531 1532 1532 1531 1530 1530 1530 1528 1528 1527 1527 1526 1525 1523 1522 1520 1519 1519 1518 1516 1514 1512 1510 1508 1507 1505 1504 1503 1503 1503 1504 1505 1506 1507 1509 1510 1513
1525 1527 1528 1529 1529 1529 1529 1529 1529 1529 1529 1528 1528 1527 1525 1525 1525 1525 1524 1523 1522 1520 1519 1518 1517 1515 1514 1512 1510 1507 1507 1506 1504 1503 1502 1502 1503 1504 1505 1507 1507 1510 1512
1522 1523 1525 1527 1527 1526 1526 1527 1527 1526 1526 1526 1525 1524 1524 1524 1524 1523 1523 1522 1521 1520 1518 1516 1515 1514 1513 1512 1510 1507 1506 1505 1504 1504 1502 1502 1502 1504 1505 1506 1508 1510 1513
1519 1520 1522 1523 1524 1525 1525 1525 1525 1524 1524 1523 1522 1522 1522 1522 1522 1522 1521 1520 1519 1518 1517 1515 1514 1514 1512 1511 1509 1507 1506 1505 1504 1503 1502 1502 1503 1504 1505 1507 1509 1512 1514
1517 1517 1518 1520 1521 1521 1522 1522 1522 1522 1521 1521 1520 1520 1520 1519 1519 1519 1518 1518 1518 1517 1516 1515 1514 1512 1511 1509 1507 1506 1504 1503 1504 1504 1503 1503 1503 1504 1505 1507 1510 1513 1515